• în România
  • Lista ţărilor
  • Pe 7 zile
  • Temperatura apei
  • Hartă satelitară
  • Meteo pe hartă
  • Widget-uri
  • user-avatar
    Intrare

    Meteo pe oră la Sarafovo

    Astăzi, 15 Decembrie, Vineri

    Timp Temperatura Precipitaţii Vânt Presiune Umiditate
    00:00 +9°C° 0 mm 2 m/s 756 mmHg 89%
    01:00 +9°C° 0 mm 2 m/s 756 mmHg 90%
    02:00 +9°C° 0 mm 2 m/s 756 mmHg 90%
    03:00 +9°C° 0 mm 2 m/s 756 mmHg 90%
    04:00 +9°C° 0 mm 2 m/s 756 mmHg 90%
    05:00 +8°C° 0 mm 2 m/s 756 mmHg 90%
    06:00 +8°C° 0 mm 2 m/s 757 mmHg 90%
    07:00 +8°C° 0 mm 2 m/s 757 mmHg 90%
    08:00 +8°C° 0 mm 2 m/s 757 mmHg 90%
    09:00 +9°C° 0 mm 2 m/s 757 mmHg 83%
    10:00 +12°C° 0 mm 2 m/s 757 mmHg 76%
    11:00 +13°C° 0 mm 3 m/s 757 mmHg 70%
    12:00 +14°C° 0 mm 3 m/s 757 mmHg 66%
    13:00 +14°C° 0 mm 4 m/s 757 mmHg 63%
    14:00 +15°C° 0 mm 4 m/s 756 mmHg 60%
    15:00 +14°C° 0 mm 4 m/s 756 mmHg 64%
    16:00 +14°C° 0 mm 4 m/s 756 mmHg 69%
    17:00 +13°C° 0 mm 4 m/s 756 mmHg 73%
    18:00 +13°C° 0 mm 5 m/s 756 mmHg 76%
    19:00 +12°C° 0 mm 5 m/s 755 mmHg 79%
    20:00 +11°C° 0 mm 6 m/s 755 mmHg 82%
    21:00 +11°C° 0 mm 6 m/s 755 mmHg 83%
    22:00 +11°C° 0 mm 7 m/s 755 mmHg 85%
    23:00 +12°C° 0 mm 7 m/s 754 mmHg 86%

    Mâine, 16 Decembrie, Sâmbătă

    Timp Temperatura Precipitaţii Vânt Presiune Umiditate
    00:00 +12°C° 0 mm 8 m/s 754 mmHg 86%
    01:00 +12°C° 0 mm 8 m/s 754 mmHg 86%
    02:00 +12°C° 0 mm 8 m/s 754 mmHg 86%
    03:00 +12°C° 0 mm 8 m/s 753 mmHg 86%
    04:00 +12°C° 0 mm 8 m/s 753 mmHg 86%
    05:00 +12°C° 0 mm 8 m/s 753 mmHg 86%
    06:00 +12°C° 0 mm 8 m/s 753 mmHg 85%
    07:00 +12°C° 0 mm 8 m/s 753 mmHg 83%
    08:00 +12°C° 0 mm 8 m/s 753 mmHg 82%
    09:00 +13°C° 0 mm 9 m/s 753 mmHg 76%
    10:00 +15°C° 0 mm 9 m/s 753 mmHg 70%
    11:00 +16°C° 0 mm 9 m/s 753 mmHg 63%
    12:00 +16°C° 0 mm 9 m/s 753 mmHg 62%
    13:00 +17°C° 0 mm 10 m/s 752 mmHg 60%
    14:00 +17°C° 0 mm 10 m/s 752 mmHg 59%
    15:00 +17°C° 0 mm 9 m/s 752 mmHg 62%
    16:00 +16°C° 0 mm 9 m/s 752 mmHg 66%
    17:00 +15°C° 0 mm 9 m/s 752 mmHg 69%
    18:00 +15°C° 0 mm 9 m/s 752 mmHg 71%
    19:00 +15°C° 0 mm 9 m/s 752 mmHg 73%
    20:00 +15°C° 0 mm 9 m/s 753 mmHg 76%
    21:00 +15°C° 0,3 mm 9 m/s 753 mmHg 77%
    22:00 +15°C° 0,3 mm 8 m/s 753 mmHg 78%
    23:00 +13°C° 0,3 mm 8 m/s 753 mmHg 80%

    Poimâine, 17 Decembrie, Duminică

    Timp Temperatura Precipitaţii Vânt Presiune Umiditate
    00:00 +13°C° 0,7 mm 8 m/s 752 mmHg 81%
    01:00 +14°C° 0,7 mm 7 m/s 752 mmHg 82%
    02:00 +14°C° 0,7 mm 7 m/s 751 mmHg 83%
    03:00 +14°C° 0,8 mm 7 m/s 751 mmHg 83%
    04:00 +13°C° 0,8 mm 8 m/s 751 mmHg 84%
    05:00 +13°C° 0,8 mm 8 m/s 750 mmHg 84%
    06:00 +11°C° 2,2 mm 8 m/s 751 mmHg 84%
    07:00 +10°C° 2,2 mm 8 m/s 751 mmHg 83%
    08:00 +7°C° 2,2 mm 8 m/s 751 mmHg 83%
    09:00 +7°C° 1,7 mm 8 m/s 752 mmHg 82%
    10:00 +6°C° 1,7 mm 7 m/s 753 mmHg 81%
    11:00 +6°C° 1,7 mm 7 m/s 753 mmHg 79%
    12:00 +6°C° 0,1 mm 7 m/s 754 mmHg 78%
    13:00 +7°C° 0,1 mm 6 m/s 754 mmHg 77%
    14:00 +7°C° 0,1 mm 6 m/s 755 mmHg 76%
    15:00 +7°C° 0 mm 6 m/s 755 mmHg 76%
    16:00 +5°C° 0 mm 6 m/s 756 mmHg 77%
    17:00 +6°C° 0 mm 5 m/s 757 mmHg 77%
    18:00 +6°C° 0,1 mm 5 m/s 758 mmHg 77%
    19:00 +5°C° 0,1 mm 5 m/s 758 mmHg 77%
    20:00 +5°C° 0,1 mm 5 m/s 759 mmHg 76%
    21:00 +5°C° 0,3 mm 5 m/s 760 mmHg 77%
    22:00 +3°C° 0,3 mm 5 m/s 760 mmHg 77%
    23:00 +3°C° 0,3 mm 5 m/s 761 mmHg 78%

    18 Decembrie, Luni

    Timp Temperatura Precipitaţii Vânt Presiune Umiditate
    00:00 +3°C° 0,3 mm 5 m/s 761 mmHg 78%
    01:00 +3°C° 0,3 mm 5 m/s 761 mmHg 78%
    02:00 +2°C° 0,3 mm 5 m/s 762 mmHg 78%
    03:00 +2°C° 0,3 mm 5 m/s 762 mmHg 79%
    04:00 +2°C° 0,3 mm 5 m/s 762 mmHg 79%
    05:00 +2°C° 0,3 mm 5 m/s 762 mmHg 79%
    06:00 +1°C° 0,3 mm 5 m/s 762 mmHg 80%
    07:00 +1°C° 0,3 mm 5 m/s 762 mmHg 81%
    08:00 +1°C° 0,3 mm 5 m/s 763 mmHg 82%
    09:00 +1°C° 0,3 mm 5 m/s 763 mmHg 82%
    10:00 +1°C° 0,3 mm 5 m/s 763 mmHg 82%
    11:00 +1°C° 0,3 mm 6 m/s 763 mmHg 82%
    12:00 +1°C° 0,5 mm 6 m/s 763 mmHg 82%
    13:00 +1°C° 0,5 mm 6 m/s 762 mmHg 82%
    14:00 +1°C° 0,5 mm 6 m/s 762 mmHg 82%
    15:00 +1°C° 0,4 mm 5 m/s 762 mmHg 83%
    16:00 +1°C° 0,4 mm 5 m/s 762 mmHg 84%
    17:00 +1°C° 0,4 mm 4 m/s 763 mmHg 85%
    18:00 0°C° 0,2 mm 4 m/s 763 mmHg 86%
    19:00 0°C° 0,2 mm 4 m/s 764 mmHg 87%
    20:00 0°C° 0,2 mm 4 m/s 764 mmHg 87%
    21:00 0°C° 0,1 mm 4 m/s 764 mmHg 88%
    22:00 0°C° 0,1 mm 4 m/s 765 mmHg 89%
    23:00 0°C° 0,1 mm 4 m/s 765 mmHg 89%

    19 Decembrie, Marţi

    Timp Temperatura Precipitaţii Vânt Presiune Umiditate
    00:00 -1°C° 0 mm 4 m/s 765 mmHg 90%
    01:00 -1°C° 0 mm 4 m/s 766 mmHg 91%
    02:00 -1°C° 0 mm 4 m/s 766 mmHg 92%
    03:00 -1°C° 0 mm 3 m/s 766 mmHg 91%
    04:00 -1°C° 0 mm 3 m/s 766 mmHg 91%
    05:00 -1°C° 0 mm 3 m/s 767 mmHg 91%
    06:00 -1°C° 0 mm 3 m/s 767 mmHg 90%
    07:00 -1°C° 0 mm 2 m/s 767 mmHg 88%
    08:00 -1°C° 0 mm 2 m/s 768 mmHg 87%
    09:00 +1°C° 0 mm 2 m/s 768 mmHg 82%
    10:00 +2°C° 0 mm 2 m/s 768 mmHg 78%
    11:00 +3°C° 0 mm 2 m/s 768 mmHg 73%
    12:00 +5°C° 0 mm 1 m/s 768 mmHg 71%
    13:00 +5°C° 0 mm 1 m/s 768 mmHg 69%
    14:00 +6°C° 0 mm 1 m/s 768 mmHg 68%
    15:00 +5°C° 0 mm 1 m/s 768 mmHg 71%
    16:00 +4°C° 0 mm 1 m/s 768 mmHg 75%
    17:00 +4°C° 0 mm 1 m/s 768 mmHg 78%
    18:00 +3°C° 0 mm 1 m/s 768 mmHg 79%
    19:00 +3°C° 0 mm 1 m/s 768 mmHg 80%
    20:00 +3°C° 0 mm 1 m/s 768 mmHg 81%
    21:00 +3°C° 0 mm 1 m/s 768 mmHg 81%
    22:00 +3°C° 0 mm 1 m/s 768 mmHg 81%
    23:00 +2°C° 0 mm 2 m/s 768 mmHg 81%

    20 Decembrie, Miercuri

    Timp Temperatura Precipitaţii Vânt Presiune Umiditate
    00:00 +2°C° 0 mm 2 m/s 768 mmHg 81%
    01:00 +2°C° 0,1 mm 2 m/s 768 mmHg 80%
    02:00 +2°C° 0,1 mm 2 m/s 768 mmHg 80%
    03:00 +2°C° 0,1 mm 2 m/s 768 mmHg 79%
    04:00 +2°C° 0,1 mm 2 m/s 768 mmHg 79%
    05:00 +1°C° 0,1 mm 3 m/s 767 mmHg 78%
    06:00 +1°C° 0,2 mm 3 m/s 768 mmHg 78%
    07:00 +1°C° 0,2 mm 3 m/s 768 mmHg 77%
    08:00 +1°C° 0,2 mm 3 m/s 768 mmHg 77%
    09:00 +1°C° 0,3 mm 3 m/s 768 mmHg 74%
    10:00 +2°C° 0,3 mm 3 m/s 768 mmHg 72%
    11:00 +3°C° 0,3 mm 4 m/s 769 mmHg 70%
    12:00 +3°C° 0,3 mm 4 m/s 768 mmHg 70%
    13:00 +3°C° 0,3 mm 4 m/s 768 mmHg 70%
    14:00 +4°C° 0,3 mm 4 m/s 768 mmHg 71%
    15:00 +3°C° 0,2 mm 4 m/s 768 mmHg 74%
    16:00 +1°C° 0,2 mm 4 m/s 768 mmHg 77%
    17:00 +1°C° 0,2 mm 4 m/s 769 mmHg 81%
    18:00 0°C° 0,1 mm 4 m/s 769 mmHg 82%
    19:00 0°C° 0,1 mm 4 m/s 769 mmHg 84%
    20:00 0°C° 0,1 mm 4 m/s 770 mmHg 85%
    21:00 -1°C° 0 mm 4 m/s 770 mmHg 86%
    22:00 -1°C° 0 mm 4 m/s 770 mmHg 87%
    23:00 -1°C° 0 mm 4 m/s 770 mmHg 88%
    Arată mai mult